sat.trackr.live / text

‹ back to catalog

ONEWEB-0187

NORAD 48221 · 2021-031M

PAYLOAD ACTIVE UNKNOWN

§ Identity

Operator
Country
UK
Launch date
2021-04-25
Launch site
VOSTO
Launch vehicle
Mass (kg)
RCS (m²)

Purposes: comms

External: N2YO · Heavens-Above · Gunter

§ Orbital elements

Epoch: 2026-05-24T23:34:00.308064Z

Period
109.55 min
Inclination
87.8931°
Eccentricity
0.0001818
Mean motion
13.14501647 rev/d
Perigee alt
1,204.4 km
Apogee alt
1,207.2 km
Semi-major
7,583.9 km
B*
-6.1359e-4
RAAN
294.3433°
Arg perigee
105.9125°
Mean anomaly
254.2205°
Rev number
24,521

§ Raw data

ONEWEB-01871 48221U 21031M   26144.98194801 -.00000215  00000+0 -61359-3 0  99972 48221  87.8931 294.3433 0001818 105.9125 254.2205 13.14501647245210

JSON: /api/v1/satellites/48221 · /tle

For live sub-satellite position, see the globe view (requires WebGL).

§ Visibility from observer

Set your observer location to see the next 7 days of passes ≥ 10°. The values pass through the URL so the page stays shareable.

No JS? Fill the form by hand. The geolocation button needs JavaScript.